Private Wetterstation Wechselburg
Wetterdaten: Mittwoch, 21.07.2010
Datum Zeit Temp. +2m Bodentemp. Temp.+5cm Temp. Wind Windchill X Diff Temp. Feuchte +2m Feuchte +5cm Sonnenschein Luftdruck Regen Wind Richtung Richtung Sonnenschein UV Taupunkt Windchill Windben
21.07.2010 00:00 20,3 C 22,7 C 23,5 C 19,3 C 17,4 C 0,0 C 74 % 64 % 0 % 1011,4 hPa 0,0 l/m 0,5 km/h (0 Bft) N-NW 337 0 min 0,0 UV-I 15,5 C 17,4 C 0,0 km/h (0 Bft)
21.07.2010 00:07 20,3 C 22,7 C 23,5 C 19,3 C 17,3 C 0,0 C 74 % 64 % 0 % 1011,4 hPa 0,0 l/m 0,3 km/h (0 Bft) N 0 0 min 0,0 UV-I 15,5 C 17,3 C 0,0 km/h (0 Bft)
21.07.2010 00:10 20,3 C 22,7 C 23,5 C 19,2 C 17,1 C 0,0 C 75 % 64 % 0 % 1011,4 hPa 0,0 l/m 0,0 km/h (0 Bft) N-NW 337 0 min 0,0 UV-I 15,7 C 17,1 C 0,0 km/h (0 Bft)
21.07.2010 00:15 20,3 C 22,7 C 23,5 C 19,2 C 17,0 C 0,0 C 75 % 64 % 0 % 1011,4 hPa 0,0 l/m 0,0 km/h (0 Bft) N-NW 337 0 min 0,0 UV-I 15,7 C 17,0 C 0,0 km/h (0 Bft)
21.07.2010 00:20 20,0 C 22,7 C 23,5 C 19,0 C 16,9 C 0,0 C 75 % 64 % 0 % 1010,9 hPa 0,0 l/m 0,0 km/h (0 Bft) N-NW 337 0 min 0,0 UV-I 15,4 C 16,9 C 0,0 km/h (0 Bft)
21.07.2010 00:25 20,0 C 22,7 C 23,5 C 18,9 C 16,8 C 0,0 C 76 % 64 % 0 % 1010,9 hPa 0,0 l/m 0,0 km/h (0 Bft) N-NW 337 0 min 0,0 UV-I 15,6 C 16,8 C 0,0 km/h (0 Bft)
21.07.2010 00:30 20,0 C 22,7 C 23,5 C 18,9 C 16,6 C 0,0 C 76 % 64 % 0 % 1010,9 hPa 0,0 l/m 0,0 km/h (0 Bft) N-NW 337 0 min 0,0 UV-I 15,6 C 16,6 C 0,0 km/h (0 Bft)
21.07.2010 00:35 20,1 C 22,7 C 23,5 C 18,9 C 16,5 C 0,0 C 76 % 64 % 0 % 1010,9 hPa 0,0 l/m 0,0 km/h (0 Bft) N-NW 337 0 min 0,0 UV-I 15,7 C 16,5 C 0,0 km/h (0 Bft)
21.07.2010 00:40 19,9 C 22,7 C 23,5 C 18,8 C 16,5 C 0,0 C 76 % 64 % 0 % 1011,3 hPa 0,0 l/m 0,0 km/h (0 Bft) N-NW 337 0 min 0,0 UV-I 15,5 C 16,5 C 0,0 km/h (0 Bft)
21.07.2010 00:45 19,8 C 22,6 C 23,5 C 18,7 C 16,4 C 0,0 C 76 % 64 % 0 % 1011,3 hPa 0,0 l/m 0,0 km/h (0 Bft) N-NW 337 0 min 0,0 UV-I 15,4 C 16,4 C 0,0 km/h (0 Bft)
21.07.2010 00:50 19,9 C 22,6 C 23,5 C 18,7 C 16,3 C 0,0 C 76 % 64 % 0 % 1011,3 hPa 0,0 l/m 0,2 km/h (0 Bft) N-NW 337 0 min 0,0 UV-I 15,5 C 16,3 C 1,8 km/h (1 Bft)
21.07.2010 00:55 19,9 C 22,6 C 23,5 C 18,7 C 16,3 C 0,0 C 76 % 64 % 0 % 1011,3 hPa 0,0 l/m 0,2 km/h (0 Bft) N-NW 337 0 min 0,0 UV-I 15,5 C 16,3 C 0,0 km/h (0 Bft)
21.07.2010 01:00 19,8 C 22,6 C 23,5 C 18,6 C 16,1 C 0,0 C 76 % 64 % 0 % 1011,1 hPa 0,0 l/m 0,2 km/h (0 Bft) N-NW 337 0 min 0,0 UV-I 15,4 C 16,1 C 0,0 km/h (0 Bft)
21.07.2010 01:07 19,6 C 22,6 C 23,5 C 18,4 C 16,0 C 0,0 C 76 % 64 % 0 % 1011,1 hPa 0,0 l/m 0,0 km/h (0 Bft) N 0 0 min 0,0 UV-I 15,2 C 16,0 C 0,0 km/h (0 Bft)
21.07.2010 01:10 19,6 C 22,6 C 23,5 C 18,4 C 15,9 C 0,0 C 77 % 64 % 0 % 1011,1 hPa 0,0 l/m 0,2 km/h (0 Bft) N-NW 337 0 min 0,0 UV-I 15,5 C 15,9 C 0,0 km/h (0 Bft)
21.07.2010 01:15 19,5 C 22,6 C 23,5 C 18,3 C 15,8 C 0,0 C 76 % 64 % 0 % 1011,1 hPa 0,0 l/m 0,2 km/h (0 Bft) N-NW 337 0 min 0,0 UV-I 15,2 C 15,8 C 0,0 km/h (0 Bft)
21.07.2010 01:20 19,1 C 22,6 C 23,5 C 18,0 C 15,7 C 0,0 C 78 % 64 % 0 % 1010,7 hPa 0,0 l/m 0,0 km/h (0 Bft) N-NW 337 0 min 0,0 UV-I 15,2 C 15,7 C 0,0 km/h (0 Bft)
21.07.2010 01:25 19,1 C 22,6 C 23,5 C 17,9 C 15,6 C 0,0 C 78 % 64 % 0 % 1010,7 hPa 0,0 l/m 0,0 km/h (0 Bft) N-NW 337 0 min 0,0 UV-I 15,2 C 15,6 C 0,0 km/h (0 Bft)
21.07.2010 01:30 19,1 C 22,6 C 23,5 C 17,9 C 15,6 C 0,0 C 78 % 64 % 0 % 1010,7 hPa 0,0 l/m 0,0 km/h (0 Bft) N-NW 337 0 min 0,0 UV-I 15,2 C 15,6 C 0,0 km/h (0 Bft)
21.07.2010 01:35 19,1 C 22,6 C 23,5 C 17,9 C 15,6 C 0,0 C 78 % 64 % 0 % 1010,7 hPa 0,0 l/m 0,0 km/h (0 Bft) N-NW 337 0 min 0,0 UV-I 15,2 C 15,6 C 0,0 km/h (0 Bft)
21.07.2010 01:40 19,1 C 22,5 C 23,5 C 17,9 C 15,4 C 0,0 C 78 % 64 % 0 % 1010,7 hPa 0,0 l/m 0,0 km/h (0 Bft) N-NW 337 0 min 0,0 UV-I 15,2 C 15,4 C 0,0 km/h (0 Bft)
21.07.2010 01:45 19,0 C 22,5 C 23,5 C 17,7 C 15,2 C 0,0 C 78 % 64 % 0 % 1010,7 hPa 0,0 l/m 0,0 km/h (0 Bft) N-NW 337 0 min 0,0 UV-I 15,1 C 15,2 C 0,0 km/h (0 Bft)
21.07.2010 01:50 18,9 C 22,6 C 23,5 C 17,7 C 15,2 C 0,0 C 78 % 64 % 0 % 1010,7 hPa 0,0 l/m 0,0 km/h (0 Bft) N-NW 337 0 min 0,0 UV-I 15,0 C 15,2 C 0,0 km/h (0 Bft)
21.07.2010 01:55 18,8 C 22,6 C 23,5 C 17,6 C 15,2 C 0,0 C 78 % 64 % 0 % 1010,7 hPa 0,0 l/m 0,0 km/h (0 Bft) N-NW 337 0 min 0,0 UV-I 14,9 C 15,2 C 0,0 km/h (0 Bft)
21.07.2010 02:00 18,7 C 22,6 C 23,5 C 17,5 C 15,1 C 0,0 C 79 % 64 % 0 % 1010,2 hPa 0,0 l/m 0,0 km/h (0 Bft) N-NW 337 0 min 0,0 UV-I 15,0 C 15,1 C 0,0 km/h (0 Bft)
21.07.2010 02:06 18,7 C 22,6 C 23,5 C 17,5 C 15,1 C 0,0 C 80 % 64 % 0 % 1010,2 hPa 0,0 l/m 0,0 km/h (0 Bft) N 0 0 min 0,0 UV-I 15,2 C 15,1 C 0,0 km/h (0 Bft)
21.07.2010 02:10 18,5 C 22,6 C 23,5 C 17,4 C 15,1 C 0,0 C 80 % 64 % 0 % 1010,2 hPa 0,0 l/m 0,0 km/h (0 Bft) N-NW 337 0 min 0,0 UV-I 15,0 C 15,1 C 0,0 km/h (0 Bft)
21.07.2010 02:15 18,4 C 22,5 C 23,5 C 17,3 C 15,1 C 0,0 C 80 % 64 % 0 % 1010,2 hPa 0,0 l/m 0,0 km/h (0 Bft) N-NW 337 0 min 0,0 UV-I 14,9 C 15,1 C 0,0 km/h (0 Bft)
21.07.2010 02:20 18,3 C 22,5 C 23,5 C 17,3 C 15,2 C 0,0 C 80 % 64 % 0 % 1010,2 hPa 0,0 l/m 0,2 km/h (0 Bft) N-NW 337 0 min 0,0 UV-I 14,8 C 15,2 C 0,0 km/h (0 Bft)
21.07.2010 02:25 18,1 C 22,5 C 23,5 C 17,1 C 15,2 C 0,0 C 81 % 64 % 0 % 1010,2 hPa 0,0 l/m 0,2 km/h (0 Bft) N-NW 337 0 min 0,0 UV-I 14,8 C 15,2 C 0,0 km/h (0 Bft)
21.07.2010 02:30 18,3 C 22,4 C 23,5 C 17,2 C 15,1 C 0,0 C 80 % 64 % 0 % 1010,2 hPa 0,0 l/m 0,2 km/h (0 Bft) N-NW 337 0 min 0,0 UV-I 14,8 C 15,1 C 0,0 km/h (0 Bft)
21.07.2010 02:35 18,3 C 22,4 C 23,5 C 17,2 C 15,0 C 0,0 C 80 % 64 % 0 % 1010,2 hPa 0,0 l/m 0,0 km/h (0 Bft) N-NW 337 0 min 0,0 UV-I 14,8 C 15,0 C 0,0 km/h (0 Bft)
21.07.2010 02:40 18,1 C 22,4 C 23,5 C 17,0 C 14,9 C 0,0 C 80 % 64 % 0 % 1010,1 hPa 0,0 l/m 0,0 km/h (0 Bft) N-NW 337 0 min 0,0 UV-I 14,6 C 14,9 C 0,0 km/h (0 Bft)
21.07.2010 02:45 18,1 C 22,4 C 23,5 C 17,0 C 14,9 C 0,0 C 80 % 64 % 0 % 1010,1 hPa 0,0 l/m 0,0 km/h (0 Bft) N-NW 337 0 min 0,0 UV-I 14,6 C 14,9 C 0,0 km/h (0 Bft)
21.07.2010 02:50 18,3 C 22,4 C 23,5 C 17,1 C 14,7 C 0,0 C 80 % 64 % 0 % 1010,1 hPa 0,0 l/m 0,0 km/h (0 Bft) N-NW 337 0 min 0,0 UV-I 14,8 C 14,7 C 0,0 km/h (0 Bft)
21.07.2010 02:55 18,3 C 22,3 C 23,5 C 17,1 C 14,7 C 0,0 C 79 % 64 % 0 % 1010,1 hPa 0,0 l/m 0,0 km/h (0 Bft) N-NW 337 0 min 0,0 UV-I 14,6 C 14,7 C 0,0 km/h (0 Bft)
21.07.2010 03:00 18,1 C 22,3 C 23,5 C 16,9 C 14,5 C 0,0 C 79 % 64 % 0 % 1009,8 hPa 0,0 l/m 0,0 km/h (0 Bft) N-NW 337 0 min 0,0 UV-I 14,4 C 14,5 C 0,0 km/h (0 Bft)
21.07.2010 03:07 18,1 C 22,4 C 16,5 C 16,9 C 14,5 C 0,0 C 79 % 86 % 0 % 1009,8 hPa 0,0 l/m 0,0 km/h (0 Bft) N 0 0 min 0,0 UV-I 14,4 C 14,5 C 0,0 km/h (0 Bft)
21.07.2010 03:10 17,8 C 22,4 C 16,4 C 16,7 C 14,4 C 0,0 C 80 % 86 % 0 % 1009,8 hPa 0,0 l/m 0,0 km/h (0 Bft) N-NW 337 0 min 0,0 UV-I 14,3 C 14,4 C 0,0 km/h (0 Bft)
21.07.2010 03:15 17,9 C 22,4 C 16,4 C 16,7 C 14,3 C 0,0 C 80 % 86 % 0 % 1009,8 hPa 0,0 l/m 0,3 km/h (0 Bft) N-NW 337 0 min 0,0 UV-I 14,4 C 14,3 C 0,0 km/h (0 Bft)
21.07.2010 03:20 17,9 C 22,3 C 16,4 C 16,7 C 14,2 C 0,0 C 80 % 86 % 0 % 1009,5 hPa 0,0 l/m 0,3 km/h (0 Bft) N-NW 337 0 min 0,0 UV-I 14,4 C 14,2 C 0,0 km/h (0 Bft)
21.07.2010 03:25 17,9 C 22,3 C 16,4 C 16,7 C 14,2 C 0,0 C 80 % 86 % 0 % 1009,5 hPa 0,0 l/m 0,0 km/h (0 Bft) N-NW 337 0 min 0,0 UV-I 14,4 C 14,2 C 0,0 km/h (0 Bft)
21.07.2010 03:30 17,8 C 22,4 C 16,4 C 16,6 C 14,1 C 0,0 C 79 % 86 % 0 % 1009,5 hPa 0,0 l/m 0,0 km/h (0 Bft) N-NW 337 0 min 0,0 UV-I 14,1 C 14,1 C 0,0 km/h (0 Bft)
21.07.2010 03:35 17,7 C 22,4 C 16,4 C 16,5 C 14,1 C 0,0 C 80 % 86 % 0 % 1009,5 hPa 0,0 l/m 0,0 km/h (0 Bft) N-NW 337 0 min 0,0 UV-I 14,2 C 14,1 C 0,0 km/h (0 Bft)
21.07.2010 03:40 17,3 C 22,4 C 16,4 C 16,3 C 14,2 C 0,0 C 81 % 86 % 0 % 1009,9 hPa 0,0 l/m 0,0 km/h (0 Bft) N-NW 337 0 min 0,0 UV-I 14,0 C 14,2 C 0,0 km/h (0 Bft)
21.07.2010 03:45 17,3 C 22,4 C 16,4 C 16,3 C 14,2 C 0,0 C 82 % 86 % 0 % 1009,9 hPa 0,0 l/m 0,0 km/h (0 Bft) N-NW 337 0 min 0,0 UV-I 14,2 C 14,2 C 0,0 km/h (0 Bft)
21.07.2010 03:50 17,2 C 22,3 C 16,4 C 16,2 C 14,1 C 0,0 C 82 % 86 % 0 % 1009,9 hPa 0,0 l/m 0,0 km/h (0 Bft) N-NW 337 0 min 0,0 UV-I 14,1 C 14,1 C 0,0 km/h (0 Bft)
21.07.2010 03:55 17,5 C 22,3 C 16,4 C 16,4 C 14,1 C 0,0 C 81 % 86 % 0 % 1009,9 hPa 0,0 l/m 0,0 km/h (0 Bft) N-NW 337 0 min 0,0 UV-I 14,2 C 14,1 C 0,0 km/h (0 Bft)
21.07.2010 04:00 17,3 C 22,3 C 16,4 C 16,2 C 14,0 C 0,0 C 81 % 86 % 0 % 1009,3 hPa 0,0 l/m 0,0 km/h (0 Bft) N-NW 337 0 min 0,0 UV-I 14,0 C 14,0 C 0,0 km/h (0 Bft)
21.07.2010 04:07 17,2 C 22,3 C 16,4 C 16,1 C 13,9 C 0,0 C 82 % 86 % 0 % 1009,3 hPa 0,0 l/m 0,0 km/h (0 Bft) N 0 0 min 0,0 UV-I 14,1 C 13,9 C 0,0 km/h (0 Bft)
21.07.2010 04:10 17,3 C 22,3 C 16,4 C 16,1 C 13,8 C 0,0 C 81 % 86 % 0 % 1009,3 hPa 0,0 l/m 0,0 km/h (0 Bft) N-NW 337 0 min 0,0 UV-I 14,0 C 13,8 C 0,0 km/h (0 Bft)
21.07.2010 04:15 17,3 C 22,3 C 16,4 C 16,1 C 13,8 C 0,0 C 81 % 86 % 0 % 1009,3 hPa 0,0 l/m 0,0 km/h (0 Bft) N-NW 337 0 min 0,0 UV-I 14,0 C 13,8 C 0,0 km/h (0 Bft)
21.07.2010 04:20 17,2 C 22,3 C 16,4 C 16,1 C 13,8 C 0,0 C 81 % 86 % 0 % 1009,6 hPa 0,0 l/m 0,0 km/h (0 Bft) N-NW 337 0 min 0,0 UV-I 13,9 C 13,8 C 0,0 km/h (0 Bft)
21.07.2010 04:25 17,2 C 22,3 C 16,4 C 16,0 C 13,7 C 0,0 C 81 % 86 % 0 % 1009,6 hPa 0,0 l/m 0,0 km/h (0 Bft) N-NW 337 0 min 0,0 UV-I 13,9 C 13,7 C 0,0 km/h (0 Bft)
21.07.2010 04:30 17,3 C 22,1 C 16,4 C 16,1 C 13,6 C 0,0 C 81 % 86 % 0 % 1009,6 hPa 0,0 l/m 0,0 km/h (0 Bft) N-NW 337 0 min 0,0 UV-I 14,0 C 13,6 C 0,0 km/h (0 Bft)
21.07.2010 04:35 17,3 C 22,1 C 16,4 C 16,1 C 13,6 C 0,0 C 80 % 86 % 0 % 1009,6 hPa 0,0 l/m 0,0 km/h (0 Bft) N-NW 337 0 min 0,0 UV-I 13,8 C 13,6 C 0,0 km/h (0 Bft)
21.07.2010 04:40 17,0 C 22,2 C 16,4 C 15,8 C 13,5 C 0,0 C 80 % 86 % 0 % 1009,1 hPa 0,0 l/m 0,0 km/h (0 Bft) N-NW 337 0 min 0,0 UV-I 13,5 C 13,5 C 0,0 km/h (0 Bft)
21.07.2010 04:45 17,0 C 22,1 C 16,4 C 15,8 C 13,4 C 0,0 C 81 % 86 % 0 % 1009,1 hPa 0,0 l/m 0,0 km/h (0 Bft) N-NW 337 0 min 0,0 UV-I 13,7 C 13,4 C 0,0 km/h (0 Bft)
21.07.2010 04:50 17,1 C 22,2 C 16,4 C 15,9 C 13,4 C 0,0 C 81 % 86 % 0 % 1009,1 hPa 0,0 l/m 0,0 km/h (0 Bft) N-NW 337 0 min 0,0 UV-I 13,8 C 13,4 C 0,0 km/h (0 Bft)
21.07.2010 04:55 17,1 C 22,2 C 16,4 C 15,8 C 13,3 C 0,0 C 81 % 86 % 0 % 1009,1 hPa 0,0 l/m 0,0 km/h (0 Bft) N-NW 337 0 min 0,0 UV-I 13,8 C 13,3 C 0,0 km/h (0 Bft)
21.07.2010 05:00 16,9 C 22,1 C 16,4 C 15,7 C 13,4 C 0,0 C 82 % 86 % 0 % 1009,2 hPa 0,0 l/m 0,0 km/h (0 Bft) N-NW 337 0 min 0,0 UV-I 13,8 C 13,4 C 0,0 km/h (0 Bft)
21.07.2010 05:07 16,9 C 22,1 C 16,4 C 15,7 C 13,4 C 0,0 C 82 % 86 % 0 % 1009,2 hPa 0,0 l/m 0,0 km/h (0 Bft) N 0 0 min 0,0 UV-I 13,8 C 13,4 C 0,0 km/h (0 Bft)
21.07.2010 05:10 17,1 C 22,0 C 15,3 C 15,8 C 13,3 C 0,0 C 81 % 87 % 0 % 1009,2 hPa 0,0 l/m 0,0 km/h (0 Bft) N-NW 337 0 min 0,0 UV-I 13,8 C 13,3 C 0,0 km/h (0 Bft)
21.07.2010 05:15 17,0 C 22,0 C 15,2 C 15,8 C 13,3 C 0,0 C 81 % 87 % 0 % 1009,2 hPa 0,0 l/m 0,0 km/h (0 Bft) N-NW 337 0 min 0,0 UV-I 13,7 C 13,3 C 0,0 km/h (0 Bft)
21.07.2010 05:20 16,9 C 22,0 C 15,2 C 15,7 C 13,2 C 0,0 C 80 % 87 % 0 % 1009,0 hPa 0,0 l/m 0,0 km/h (0 Bft) N-NW 337 0 min 0,0 UV-I 13,4 C 13,2 C 0,0 km/h (0 Bft)
21.07.2010 05:25 16,9 C 21,9 C 15,2 C 15,7 C 13,2 C 0,0 C 80 % 87 % 0 % 1009,0 hPa 0,0 l/m 0,0 km/h (0 Bft) N-NW 337 0 min 0,0 UV-I 13,4 C 13,2 C 0,0 km/h (0 Bft)
21.07.2010 05:30 16,9 C 21,9 C 15,2 C 15,7 C 13,2 C 0,0 C 80 % 87 % 0 % 1009,0 hPa 0,0 l/m 0,0 km/h (0 Bft) N-NW 337 0 min 0,0 UV-I 13,4 C 13,2 C 0,0 km/h (0 Bft)
21.07.2010 05:35 16,8 C 21,9 C 15,2 C 15,6 C 13,1 C 0,0 C 80 % 87 % 0 % 1009,0 hPa 0,0 l/m 0,2 km/h (0 Bft) N-NW 337 0 min 0,0 UV-I 13,3 C 13,1 C 1,6 km/h (1 Bft)
21.07.2010 05:40 16,8 C 21,9 C 15,2 C 15,6 C 13,2 C 0,0 C 80 % 87 % 0 % 1009,1 hPa 0,0 l/m 0,0 km/h (0 Bft) N-NW 337 0 min 0,0 UV-I 13,3 C 13,2 C 0,0 km/h (0 Bft)
21.07.2010 05:45 16,8 C 21,9 C 15,2 C 15,6 C 13,1 C 0,0 C 80 % 87 % 0 % 1009,1 hPa 0,0 l/m 0,0 km/h (0 Bft) N-NW 337 0 min 0,0 UV-I 13,3 C 13,1 C 0,0 km/h (0 Bft)
21.07.2010 05:50 16,7 C 21,8 C 15,2 C 15,5 C 13,1 C 0,0 C 80 % 87 % 0 % 1009,1 hPa 0,0 l/m 0,0 km/h (0 Bft) N-NW 337 0 min 0,0 UV-I 13,2 C 13,1 C 0,0 km/h (0 Bft)
21.07.2010 05:55 16,7 C 21,8 C 15,2 C 15,5 C 13,2 C 0,0 C 81 % 87 % 0 % 1009,1 hPa 0,0 l/m 0,0 km/h (0 Bft) N-NW 337 0 min 0,0 UV-I 13,4 C 13,2 C 0,0 km/h (0 Bft)
21.07.2010 06:00 16,7 C 21,9 C 15,2 C 15,6 C 13,3 C 0,0 C 81 % 87 % 0 % 1009,1 hPa 0,0 l/m 0,0 km/h (0 Bft) N-NW 337 0 min 0,0 UV-I 13,4 C 13,3 C 0,0 km/h (0 Bft)
21.07.2010 06:07 16,8 C 21,9 C 15,2 C 15,6 C 13,3 C 0,0 C 80 % 87 % 0 % 1009,1 hPa 0,0 l/m 0,0 km/h (0 Bft) N 0 0 min 0,0 UV-I 13,3 C 13,3 C 0,0 km/h (0 Bft)
21.07.2010 06:10 16,5 C 21,9 C 15,2 C 15,5 C 13,5 C 0,0 C 81 % 87 % 0 % 1009,1 hPa 0,0 l/m 0,0 km/h (0 Bft) N-NW 337 0 min 0,0 UV-I 13,2 C 13,5 C 0,0 km/h (0 Bft)
21.07.2010 06:15 16,5 C 21,9 C 15,2 C 15,6 C 13,7 C 0,0 C 82 % 87 % 0 % 1009,1 hPa 0,0 l/m 0,0 km/h (0 Bft) N-NW 337 0 min 0,0 UV-I 13,4 C 13,7 C 0,0 km/h (0 Bft)
21.07.2010 06:20 16,7 C 21,8 C 15,2 C 15,7 C 13,8 C 0,0 C 82 % 87 % 0 % 1009,1 hPa 0,0 l/m 0,0 km/h (0 Bft) N-NW 337 0 min 0,0 UV-I 13,6 C 13,8 C 0,0 km/h (0 Bft)
21.07.2010 06:25 16,9 C 21,8 C 15,2 C 15,9 C 13,9 C 0,0 C 82 % 87 % 0 % 1009,1 hPa 0,0 l/m 0,0 km/h (0 Bft) N-NW 337 0 min 0,0 UV-I 13,8 C 13,9 C 0,0 km/h (0 Bft)
21.07.2010 06:30 17,6 C 21,7 C 15,2 C 16,4 C 13,9 C 0,0 C 81 % 87 % 0 % 1009,1 hPa 0,0 l/m 0,2 km/h (0 Bft) N-NW 337 0 min 0,0 UV-I 14,3 C 13,9 C 0,0 km/h (0 Bft)
21.07.2010 06:35 17,9 C 21,7 C 15,2 C 16,6 C 13,9 C 0,0 C 79 % 87 % 0 % 1009,1 hPa 0,0 l/m 0,2 km/h (0 Bft) N-NW 337 0 min 0,0 UV-I 14,2 C 13,9 C 0,0 km/h (0 Bft)
21.07.2010 06:40 18,4 C 21,7 C 15,2 C 16,9 C 14,0 C 0,0 C 78 % 87 % 0 % 1009,2 hPa 0,0 l/m 0,0 km/h (0 Bft) N-NW 337 0 min 0,0 UV-I 14,5 C 14,0 C 0,0 km/h (0 Bft)
21.07.2010 06:45 18,8 C 21,7 C 15,2 C 17,2 C 14,1 C 0,0 C 77 % 87 % 0 % 1009,2 hPa 0,0 l/m 0,0 km/h (0 Bft) N-NW 337 0 min 0,0 UV-I 14,7 C 14,1 C 0,0 km/h (0 Bft)
21.07.2010 06:50 18,4 C 21,6 C 15,2 C 17,0 C 14,2 C 0,0 C 77 % 87 % 0 % 1009,2 hPa 0,0 l/m 0,0 km/h (0 Bft) N-NW 337 0 min 0,0 UV-I 14,3 C 14,2 C 0,0 km/h (0 Bft)
21.07.2010 06:55 18,8 C 21,6 C 15,2 C 17,3 C 14,3 C 0,0 C 76 % 87 % 0 % 1009,2 hPa 0,0 l/m 0,0 km/h (0 Bft) N-NW 337 0 min 0,0 UV-I 14,5 C 14,3 C 0,0 km/h (0 Bft)
21.07.2010 07:00 20,6 C 21,6 C 15,2 C 18,6 C 14,7 C 0,0 C 74 % 87 % 0 % 1009,4 hPa 0,0 l/m 0,0 km/h (0 Bft) N-NW 337 0 min 0,0 UV-I 15,8 C 14,7 C 0,0 km/h (0 Bft)
21.07.2010 07:07 22,5 C 21,6 C 15,2 C 20,4 C 16,1 C 0,0 C 69 % 87 % 0 % 1009,4 hPa 0,0 l/m 0,0 km/h (0 Bft) N 0 0 min 0,0 UV-I 16,5 C 16,1 C 0,0 km/h (0 Bft)
21.07.2010 07:10 24,0 C 21,5 C 15,2 C 22,2 C 18,7 C 0,0 C 64 % 87 % 0 % 1009,4 hPa 0,0 l/m 0,0 km/h (0 Bft) N-NW 337 0 min 0,0 UV-I 16,8 C 18,7 C 0,0 km/h (0 Bft)
21.07.2010 07:15 24,9 C 21,5 C 15,2 C 23,3 C 20,0 C 0,0 C 62 % 87 % 0 % 1009,4 hPa 0,0 l/m 0,0 km/h (0 Bft) N-NW 337 0 min 0,0 UV-I 17,1 C 20,0 C 0,0 km/h (0 Bft)
21.07.2010 07:20 25,0 C 21,4 C 15,2 C 23,9 C 21,8 C 0,0 C 60 % 87 % 0 % 1009,6 hPa 0,0 l/m 0,0 km/h (0 Bft) N-NW 337 0 min 0,0 UV-I 16,7 C 21,8 C 0,0 km/h (0 Bft)
21.07.2010 07:25 23,3 C 21,4 C 15,2 C 23,1 C 22,6 C 0,0 C 63 % 87 % 0 % 1009,6 hPa 0,0 l/m 0,0 km/h (0 Bft) N-NW 337 0 min 0,1 UV-I 15,9 C 22,6 C 0,0 km/h (0 Bft)
21.07.2010 07:30 23,9 C 21,4 C 15,2 C 23,7 C 23,4 C 0,0 C 62 % 87 % 0 % 1009,6 hPa 0,0 l/m 0,0 km/h (0 Bft) N-NW 337 0 min 0,1 UV-I 16,2 C 23,4 C 0,0 km/h (0 Bft)
21.07.2010 07:35 22,7 C 21,4 C 15,2 C 24,3 C 24,3 C 1,6 C 64 % 87 % 42 % 1009,6 hPa 0,0 l/m 0,0 km/h (0 Bft) N-NW 337 0 min 0,1 UV-I 15,5 C 24,3 C 0,0 km/h (0 Bft)
21.07.2010 07:40 22,2 C 21,4 C 15,2 C 25,4 C 25,4 C 3,2 C 66 % 87 % 84 % 1009,4 hPa 0,0 l/m 0,0 km/h (0 Bft) N-NW 337 0 min 0,2 UV-I 15,5 C 25,4 C 0,0 km/h (0 Bft)
21.07.2010 07:45 21,9 C 21,4 C 15,2 C 26,2 C 26,2 C 4,3 C 68 % 87 % 100 % 1009,4 hPa 0,0 l/m 0,0 km/h (0 Bft) N-NW 337 5 min 0,2 UV-I 15,7 C 26,2 C 0,0 km/h (0 Bft)
21.07.2010 07:50 21,7 C 21,4 C 15,2 C 26,7 C 26,7 C 5,0 C 68 % 87 % 100 % 1009,4 hPa 0,0 l/m 0,0 km/h (0 Bft) W-SW 247 5 min 0,2 UV-I 15,5 C 26,7 C 0,0 km/h (0 Bft)
21.07.2010 07:55 21,6 C 21,4 C 15,2 C 27,2 C 27,2 C 5,6 C 69 % 87 % 100 % 1009,4 hPa 0,0 l/m 0,0 km/h (0 Bft) W-SW 247 5 min 0,2 UV-I 15,7 C 27,2 C 0,0 km/h (0 Bft)
21.07.2010 08:00 21,5 C 21,4 C 15,2 C 27,8 C 27,8 C 6,3 C 71 % 87 % 100 % 1009,3 hPa 0,0 l/m 0,0 km/h (0 Bft) W-SW 247 5 min 0,3 UV-I 16,0 C 27,8 C 0,0 km/h (0 Bft)
21.07.2010 08:07 21,5 C 21,3 C 15,2 C 28,0 C 28,0 C 6,5 C 71 % 87 % 100 % 1009,3 hPa 0,0 l/m 0,2 km/h (0 Bft) N 0 7 min 0,3 UV-I 16,0 C 28,0 C 0,0 km/h (0 Bft)
21.07.2010 08:10 22,0 C 21,3 C 15,2 C 28,1 C 28,1 C 6,1 C 71 % 87 % 100 % 1009,3 hPa 0,0 l/m 0,2 km/h (0 Bft) W-SW 247 3 min 0,4 UV-I 16,5 C 28,1 C 2,1 km/h (1 Bft)
21.07.2010 08:15 22,2 C 21,3 C 15,2 C 28,3 C 28,3 C 6,1 C 70 % 87 % 100 % 1009,3 hPa 0,0 l/m 0,2 km/h (0 Bft) S-SW 202 5 min 0,4 UV-I 16,5 C 28,3 C 0,0 km/h (0 Bft)
21.07.2010 08:20 22,1 C 21,3 C 15,2 C 28,4 C 28,4 C 6,3 C 71 % 87 % 100 % 1009,4 hPa 0,0 l/m 0,3 km/h (0 Bft) SW 225 5 min 0,4 UV-I 16,6 C 28,4 C 2,4 km/h (1 Bft)
21.07.2010 08:25 21,9 C 21,3 C 15,2 C 28,4 C 28,4 C 6,5 C 72 % 87 % 100 % 1009,4 hPa 0,0 l/m 0,8 km/h (0 Bft) S-SW 202 5 min 0,5 UV-I 16,6 C 28,4 C 1,9 km/h (1 Bft)
21.07.2010 08:30 21,7 C 21,3 C 15,2 C 28,9 C 28,9 C 7,2 C 73 % 87 % 100 % 1009,4 hPa 0,0 l/m 1,0 km/h (0 Bft) SW 225 5 min 0,5 UV-I 16,6 C 28,9 C 2,6 km/h (1 Bft)
21.07.2010 08:35 21,7 C 21,3 C 15,2 C 29,3 C 29,3 C 7,6 C 73 % 87 % 100 % 1009,4 hPa 0,0 l/m 0,6 km/h (0 Bft) W 270 5 min 0,6 UV-I 16,6 C 29,3 C 0,0 km/h (0 Bft)
21.07.2010 08:40 21,8 C 21,3 C 15,2 C 30,0 C 30,0 C 8,2 C 74 % 87 % 100 % 1009,4 hPa 0,0 l/m 0,2 km/h (0 Bft) SW 225 5 min 0,7 UV-I 17,0 C 30,0 C 0,0 km/h (0 Bft)
21.07.2010 08:45 21,9 C 21,3 C 15,2 C 30,1 C 30,1 C 8,2 C 74 % 87 % 100 % 1009,4 hPa 0,0 l/m 0,6 km/h (0 Bft) S 180 5 min 0,7 UV-I 17,0 C 30,1 C 2,9 km/h (1 Bft)
21.07.2010 08:50 22,1 C 21,3 C 15,2 C 30,6 C 30,6 C 8,5 C 74 % 87 % 100 % 1009,4 hPa 0,0 l/m 1,3 km/h (1 Bft) SO 135 5 min 0,8 UV-I 17,2 C 30,6 C 3,7 km/h (1 Bft)
21.07.2010 08:55 22,1 C 21,3 C 15,2 C 30,9 C 30,9 C 8,8 C 75 % 87 % 100 % 1009,4 hPa 0,0 l/m 1,4 km/h (1 Bft) SW 225 5 min 0,9 UV-I 17,5 C 30,9 C 2,3 km/h (1 Bft)
21.07.2010 09:00 22,2 C 21,3 C 15,2 C 31,2 C 31,2 C 9,0 C 75 % 87 % 100 % 1009,6 hPa 0,0 l/m 1,3 km/h (1 Bft) SW 225 5 min 1,0 UV-I 17,5 C 31,2 C 0,0 km/h (0 Bft)
21.07.2010 09:07 22,2 C 21,3 C 15,2 C 31,6 C 31,6 C 9,4 C 75 % 87 % 100 % 1009,6 hPa 0,0 l/m 1,0 km/h (0 Bft) N 0 7 min 1,1 UV-I 17,5 C 31,6 C 1,8 km/h (1 Bft)
21.07.2010 09:10 22,5 C 21,3 C 15,2 C 31,9 C 31,9 C 9,4 C 75 % 87 % 100 % 1009,6 hPa 0,0 l/m 1,1 km/h (1 Bft) SW 225 3 min 1,2 UV-I 17,8 C 31,9 C 1,8 km/h (1 Bft)
21.07.2010 09:15 22,5 C 21,3 C 15,2 C 32,1 C 32,1 C 9,6 C 75 % 87 % 100 % 1009,6 hPa 0,0 l/m 1,6 km/h (1 Bft) S 180 5 min 1,3 UV-I 17,8 C 32,1 C 0,0 km/h (0 Bft)
21.07.2010 09:20 22,7 C 21,3 C 15,2 C 32,3 C 32,3 C 9,6 C 75 % 87 % 100 % 1009,2 hPa 0,0 l/m 1,4 km/h (1 Bft) N-NO 22 5 min 1,4 UV-I 18,0 C 32,3 C 4,2 km/h (1 Bft)
21.07.2010 09:25 22,7 C 21,3 C 15,2 C 32,8 C 32,8 C 10,1 C 74 % 87 % 100 % 1009,2 hPa 0,0 l/m 1,0 km/h (0 Bft) S-SW 202 5 min 1,5 UV-I 17,8 C 32,8 C 3,7 km/h (1 Bft)
21.07.2010 09:30 23,1 C 21,2 C 15,2 C 32,9 C 32,9 C 9,8 C 75 % 87 % 100 % 1009,2 hPa 0,0 l/m 1,3 km/h (1 Bft) S 180 5 min 1,5 UV-I 18,4 C 32,9 C 4,8 km/h (1 Bft)
21.07.2010 09:35 23,1 C 21,2 C 15,2 C 32,8 C 32,8 C 9,7 C 74 % 87 % 100 % 1009,2 hPa 0,0 l/m 2,1 km/h (1 Bft) SW 225 5 min 1,6 UV-I 18,2 C 32,8 C 1,8 km/h (1 Bft)
21.07.2010 09:40 23,3 C 21,2 C 15,2 C 33,1 C 33,1 C 9,8 C 73 % 87 % 100 % 1009,3 hPa 0,0 l/m 1,9 km/h (1 Bft) S 180 5 min 1,6 UV-I 18,2 C 33,1 C 3,2 km/h (1 Bft)
21.07.2010 09:45 23,5 C 21,2 C 15,2 C 33,1 C 33,1 C 9,6 C 71 % 87 % 100 % 1009,3 hPa 0,0 l/m 1,0 km/h (0 Bft) N-NW 337 5 min 1,5 UV-I 17,9 C 33,1 C 0,0 km/h (0 Bft)
21.07.2010 09:50 23,6 C 21,2 C 15,2 C 33,4 C 33,4 C 9,8 C 71 % 87 % 100 % 1009,3 hPa 0,0 l/m 0,6 km/h (0 Bft) W-SW 247 5 min 1,1 UV-I 18,0 C 33,4 C 2,4 km/h (1 Bft)
21.07.2010 09:55 23,9 C 21,2 C 15,2 C 33,5 C 33,5 C 9,6 C 71 % 87 % 100 % 1009,3 hPa 0,0 l/m 1,1 km/h (1 Bft) W-SW 247 5 min 1,1 UV-I 18,3 C 33,5 C 2,9 km/h (1 Bft)
21.07.2010 10:00 24,1 C 21,2 C 15,2 C 33,6 C 33,6 C 9,5 C 68 % 87 % 100 % 1009,1 hPa 0,0 l/m 1,6 km/h (1 Bft) O-SO 112 5 min 1,2 UV-I 17,8 C 33,6 C 0,0 km/h (0 Bft)
21.07.2010 10:07 24,2 C 21,2 C 15,2 C 33,5 C 33,5 C 9,3 C 66 % 87 % 100 % 1009,1 hPa 0,0 l/m 1,4 km/h (1 Bft) N 0 7 min 1,1 UV-I 17,4 C 33,5 C 2,9 km/h (1 Bft)
21.07.2010 10:10 24,4 C 21,2 C 15,2 C 33,5 C 33,5 C 9,1 C 65 % 87 % 100 % 1009,1 hPa 0,0 l/m 2,1 km/h (1 Bft) S 180 3 min 1,2 UV-I 17,4 C 33,5 C 6,4 km/h (2 Bft)
21.07.2010 10:15 24,6 C 21,2 C 15,2 C 33,5 C 33,5 C 8,9 C 65 % 87 % 100 % 1009,1 hPa 0,0 l/m 2,3 km/h (1 Bft) W-SW 247 5 min 1,2 UV-I 17,6 C 33,5 C 5,8 km/h (2 Bft)
21.07.2010 10:20 24,8 C 21,3 C 15,2 C 33,3 C 33,3 C 8,5 C 64 % 87 % 100 % 1009,1 hPa 0,0 l/m 2,4 km/h (1 Bft) NW 315 5 min 1,2 UV-I 17,5 C 33,3 C 6,8 km/h (2 Bft)
21.07.2010 10:25 24,8 C 21,3 C 15,2 C 33,7 C 33,7 C 8,9 C 63 % 87 % 100 % 1009,1 hPa 0,0 l/m 2,3 km/h (1 Bft) S-SW 202 5 min 1,3 UV-I 17,3 C 33,7 C 3,5 km/h (1 Bft)
21.07.2010 10:30 25,0 C 21,3 C 15,2 C 33,7 C 33,7 C 8,7 C 61 % 87 % 100 % 1009,1 hPa 0,0 l/m 2,3 km/h (1 Bft) W-SW 247 5 min 1,5 UV-I 16,9 C 33,7 C 9,2 km/h (2 Bft)
21.07.2010 10:35 25,2 C 21,3 C 15,2 C 33,6 C 33,6 C 8,4 C 61 % 87 % 100 % 1009,1 hPa 0,0 l/m 2,7 km/h (1 Bft) S-SW 202 5 min 1,5 UV-I 17,1 C 33,6 C 3,2 km/h (1 Bft)
21.07.2010 10:40 25,3 C 21,2 C 15,2 C 33,6 C 33,6 C 8,3 C 58 % 87 % 100 % 1009,2 hPa 0,0 l/m 3,1 km/h (1 Bft) NO 45 5 min 2,3 UV-I 16,4 C 33,6 C 3,4 km/h (1 Bft)
21.07.2010 10:45 25,7 C 21,2 C 15,2 C 33,9 C 33,9 C 8,2 C 57 % 87 % 100 % 1009,2 hPa 0,0 l/m 2,3 km/h (1 Bft) O 90 5 min 2,1 UV-I 16,5 C 33,9 C 3,9 km/h (1 Bft)
21.07.2010 10:50 25,8 C 21,2 C 15,2 C 33,7 C 33,7 C 7,9 C 56 % 87 % 100 % 1009,2 hPa 0,0 l/m 1,9 km/h (1 Bft) SO 135 5 min 2,3 UV-I 16,3 C 33,7 C 8,2 km/h (2 Bft)
21.07.2010 10:55 26,0 C 21,2 C 15,2 C 33,6 C 33,6 C 7,6 C 55 % 87 % 100 % 1009,2 hPa 0,0 l/m 3,7 km/h (1 Bft) W-SW 247 5 min 1,7 UV-I 16,2 C 33,6 C 10,9 km/h (2 Bft)
21.07.2010 11:00 26,0 C 21,2 C 15,2 C 32,8 C 32,8 C 6,8 C 54 % 87 % 100 % 1009,4 hPa 0,0 l/m 5,3 km/h (1 Bft) W-SW 247 5 min 1,6 UV-I 16,0 C 32,8 C 11,1 km/h (2 Bft)
21.07.2010 11:07 26,2 C 21,2 C 15,2 C 32,9 C 32,9 C 6,7 C 54 % 87 % 100 % 1009,4 hPa 0,0 l/m 5,3 km/h (1 Bft) N 0 7 min 1,6 UV-I 16,1 C 32,9 C 5,0 km/h (1 Bft)
21.07.2010 11:10 26,3 C 21,3 C 15,2 C 32,8 C 32,8 C 6,5 C 53 % 87 % 100 % 1009,4 hPa 0,0 l/m 4,5 km/h (1 Bft) SW 225 3 min 2,1 UV-I 15,9 C 32,8 C 6,6 km/h (2 Bft)
21.07.2010 11:15 26,5 C 21,3 C 15,2 C 32,7 C 32,7 C 6,2 C 52 % 87 % 100 % 1009,4 hPa 0,0 l/m 5,5 km/h (1 Bft) S-SO 157 5 min 2,1 UV-I 15,8 C 32,7 C 9,5 km/h (2 Bft)
21.07.2010 11:20 26,7 C 21,3 C 15,2 C 32,3 C 32,3 C 5,6 C 52 % 87 % 100 % 1009,0 hPa 0,0 l/m 6,3 km/h (2 Bft) W-SW 247 5 min 1,8 UV-I 16,0 C 32,3 C 12,4 km/h (3 Bft)
21.07.2010 11:25 26,7 C 21,3 C 15,2 C 32,3 C 32,3 C 5,6 C 52 % 87 % 100 % 1009,0 hPa 0,0 l/m 6,8 km/h (2 Bft) W-SW 247 5 min 1,7 UV-I 16,0 C 32,3 C 9,0 km/h (2 Bft)
21.07.2010 11:30 27,1 C 21,3 C 15,2 C 32,5 C 32,5 C 5,4 C 51 % 87 % 100 % 1009,0 hPa 0,0 l/m 5,3 km/h (1 Bft) S-SO 157 5 min 1,6 UV-I 16,1 C 32,5 C 7,6 km/h (2 Bft)
21.07.2010 11:35 27,2 C 21,3 C 15,2 C 32,7 C 32,7 C 5,5 C 51 % 87 % 100 % 1009,0 hPa 0,0 l/m 4,3 km/h (1 Bft) S-SW 202 5 min 1,6 UV-I 16,2 C 32,7 C 5,3 km/h (1 Bft)
21.07.2010 11:40 27,3 C 21,4 C 15,2 C 33,0 C 33,0 C 5,7 C 50 % 87 % 100 % 1009,2 hPa 0,0 l/m 3,7 km/h (1 Bft) W 270 5 min 1,7 UV-I 15,9 C 33,0 C 2,3 km/h (1 Bft)
21.07.2010 11:45 27,5 C 21,4 C 15,2 C 33,4 C 33,4 C 5,9 C 50 % 87 % 100 % 1009,2 hPa 0,0 l/m 3,7 km/h (1 Bft) S 180 5 min 1,7 UV-I 16,1 C 33,4 C 8,5 km/h (2 Bft)
21.07.2010 11:50 27,7 C 21,4 C 15,2 C 33,3 C 33,3 C 5,6 C 50 % 87 % 100 % 1009,2 hPa 0,0 l/m 4,5 km/h (1 Bft) W-SW 247 5 min 1,8 UV-I 16,3 C 33,3 C 6,3 km/h (2 Bft)
21.07.2010 11:55 27,6 C 21,4 C 15,2 C 33,2 C 33,2 C 5,6 C 49 % 87 % 100 % 1009,2 hPa 0,0 l/m 5,0 km/h (1 Bft) SW 225 5 min 2,0 UV-I 15,9 C 33,2 C 5,0 km/h (1 Bft)
21.07.2010 12:00 27,9 C 21,4 C 15,2 C 33,2 C 33,2 C 5,3 C 49 % 87 % 100 % 1009,0 hPa 0,0 l/m 4,7 km/h (1 Bft) S-SW 202 5 min 3,0 UV-I 16,2 C 33,2 C 5,0 km/h (1 Bft)
21.07.2010 12:07 27,8 C 21,4 C 15,2 C 33,2 C 33,2 C 5,4 C 49 % 87 % 100 % 1009,0 hPa 0,0 l/m 4,5 km/h (1 Bft) SW 225 7 min 3,0 UV-I 16,1 C 33,2 C 5,1 km/h (1 Bft)
21.07.2010 12:08 27,8 C 21,4 C 15,2 C 33,2 C 33,2 C 5,4 C 49 % 87 % 100 % 1009,0 hPa 0,0 l/m 4,5 km/h (1 Bft) SW 225 1 min 3,0 UV-I 16,1 C 33,2 C 5,1 km/h (1 Bft)
21.07.2010 12:10 28,1 C 21,4 C 15,2 C 33,4 C 33,4 C 5,3 C 48 % 87 % 100 % 1009,0 hPa 0,0 l/m 3,9 km/h (1 Bft) O 90 2 min 2,9 UV-I 16,0 C 33,4 C 4,5 km/h (1 Bft)
21.07.2010 12:15 28,3 C 21,4 C 15,2 C 33,6 C 33,6 C 5,3 C 49 % 87 % 100 % 1009,0 hPa 0,0 l/m 3,4 km/h (1 Bft) S 180 5 min 3,8 UV-I 16,5 C 33,6 C 8,9 km/h (2 Bft)
21.07.2010 12:20 28,5 C 21,4 C 15,2 C 33,6 C 33,6 C 5,1 C 48 % 87 % 100 % 1009,1 hPa 0,0 l/m 3,2 km/h (1 Bft) S 180 5 min 3,9 UV-I 16,4 C 33,6 C 2,1 km/h (1 Bft)
21.07.2010 12:25 28,5 C 21,5 C 15,2 C 33,8 C 33,8 C 5,3 C 48 % 87 % 100 % 1009,1 hPa 0,0 l/m 2,9 km/h (1 Bft) SO 135 5 min 3,8 UV-I 16,4 C 33,8 C 4,8 km/h (1 Bft)
21.07.2010 12:30 28,6 C 21,5 C 15,2 C 34,2 C 34,2 C 5,6 C 47 % 87 % 100 % 1009,1 hPa 0,0 l/m 1,6 km/h (1 Bft) O-NO 67 5 min 3,9 UV-I 16,2 C 34,2 C 2,3 km/h (1 Bft)
21.07.2010 12:35 28,8 C 21,5 C 15,2 C 34,5 C 34,5 C 5,7 C 49 % 87 % 100 % 1009,1 hPa 0,0 l/m 1,9 km/h (1 Bft) N-NO 22 5 min 3,9 UV-I 17,0 C 34,5 C 5,6 km/h (1 Bft)
21.07.2010 12:40 28,8 C 21,6 C 15,2 C 34,7 C 34,7 C 5,9 C 47 % 87 % 100 % 1008,9 hPa 0,0 l/m 2,6 km/h (1 Bft) O-SO 112 5 min 3,8 UV-I 16,3 C 34,7 C 2,6 km/h (1 Bft)
21.07.2010 12:45 28,9 C 21,6 C 15,2 C 34,5 C 34,5 C 5,6 C 47 % 87 % 100 % 1008,9 hPa 0,0 l/m 3,9 km/h (1 Bft) S-SW 202 5 min 4,0 UV-I 16,4 C 34,5 C 3,2 km/h (1 Bft)
21.07.2010 12:50 29,1 C 21,6 C 15,2 C 34,0 C 34,0 C 4,9 C 46 % 87 % 100 % 1008,9 hPa 0,0 l/m 6,0 km/h (2 Bft) S-SW 202 5 min 4,1 UV-I 16,3 C 34,0 C 17,5 km/h (3 Bft)
21.07.2010 12:55 29,2 C 21,6 C 15,2 C 33,7 C 33,7 C 4,5 C 45 % 87 % 100 % 1008,9 hPa 0,0 l/m 6,6 km/h (2 Bft) W-SW 247 5 min 4,3 UV-I 16,0 C 33,7 C 7,9 km/h (2 Bft)
21.07.2010 13:00 29,1 C 21,6 C 15,2 C 33,3 C 33,3 C 4,2 C 46 % 87 % 100 % 1008,9 hPa 0,0 l/m 6,9 km/h (2 Bft) SW 225 5 min 4,4 UV-I 16,3 C 33,3 C 7,9 km/h (2 Bft)
21.07.2010 13:07 29,1 C 21,7 C 15,2 C 33,4 C 33,4 C 4,3 C 46 % 87 % 100 % 1008,9 hPa 0,0 l/m 6,0 km/h (2 Bft) N 0 7 min 4,5 UV-I 16,3 C 33,4 C 5,6 km/h (1 Bft)
21.07.2010 13:10 29,4 C 21,7 C 15,2 C 33,7 C 33,7 C 4,3 C 45 % 87 % 100 % 1008,9 hPa 0,0 l/m 4,7 km/h (1 Bft) S 180 3 min 4,5 UV-I 16,2 C 33,7 C 5,8 km/h (2 Bft)
21.07.2010 13:15 29,4 C 21,7 C 15,2 C 33,9 C 33,9 C 4,5 C 44 % 87 % 100 % 1008,9 hPa 0,0 l/m 4,3 km/h (1 Bft) W-SW 247 5 min 4,6 UV-I 15,8 C 33,9 C 8,9 km/h (2 Bft)
21.07.2010 13:20 29,7 C 21,8 C 15,2 C 34,2 C 34,2 C 4,5 C 44 % 87 % 100 % 1008,7 hPa 0,0 l/m 3,9 km/h (1 Bft) NO 45 5 min 4,5 UV-I 16,1 C 34,2 C 3,5 km/h (1 Bft)
21.07.2010 13:25 29,9 C 21,8 C 15,2 C 34,5 C 34,5 C 4,6 C 44 % 87 % 100 % 1008,7 hPa 0,0 l/m 2,4 km/h (1 Bft) W-SW 247 5 min 4,6 UV-I 16,3 C 34,5 C 1,6 km/h (1 Bft)
21.07.2010 13:30 29,9 C 21,8 C 15,2 C 34,9 C 34,9 C 5,0 C 43 % 87 % 100 % 1008,7 hPa 0,0 l/m 2,9 km/h (1 Bft) SW 225 5 min 4,6 UV-I 15,9 C 34,9 C 5,3 km/h (1 Bft)
21.07.2010 13:35 30,0 C 21,8 C 15,2 C 34,7 C 34,7 C 4,7 C 41 % 87 % 100 % 1008,7 hPa 0,0 l/m 5,0 km/h (1 Bft) SW 225 5 min 4,7 UV-I 15,3 C 34,7 C 9,2 km/h (2 Bft)
21.07.2010 13:40 30,1 C 21,8 C 15,2 C 34,3 C 34,3 C 4,2 C 41 % 87 % 100 % 1008,6 hPa 0,0 l/m 6,1 km/h (2 Bft) SO 135 5 min 4,6 UV-I 15,4 C 34,3 C 6,3 km/h (2 Bft)
21.07.2010 13:45 30,3 C 21,8 C 15,2 C 34,3 C 34,3 C 4,0 C 40 % 87 % 100 % 1008,6 hPa 0,0 l/m 4,8 km/h (1 Bft) N-NO 22 5 min 4,5 UV-I 15,2 C 34,3 C 0,0 km/h (0 Bft)
21.07.2010 13:50 30,3 C 21,9 C 15,2 C 34,7 C 34,7 C 4,4 C 41 % 87 % 100 % 1008,6 hPa 0,0 l/m 3,2 km/h (1 Bft) S 180 5 min 4,5 UV-I 15,6 C 34,7 C 7,7 km/h (2 Bft)
21.07.2010 13:55 30,3 C 21,9 C 15,2 C 34,7 C 34,7 C 4,4 C 40 % 87 % 100 % 1008,6 hPa 0,0 l/m 3,9 km/h (1 Bft) SO 135 5 min 4,5 UV-I 15,2 C 34,7 C 7,6 km/h (2 Bft)
21.07.2010 14:00 30,3 C 22,0 C 15,2 C 34,4 C 34,4 C 4,1 C 40 % 87 % 100 % 1008,6 hPa 0,0 l/m 6,4 km/h (2 Bft) S-SO 157 5 min 4,4 UV-I 15,2 C 34,4 C 5,8 km/h (2 Bft)
21.07.2010 14:07 30,5 C 22,0 C 15,2 C 34,5 C 34,5 C 4,0 C 39 % 87 % 100 % 1008,6 hPa 0,0 l/m 5,5 km/h (1 Bft) N 0 7 min 4,4 UV-I 15,0 C 34,5 C 4,7 km/h (1 Bft)
21.07.2010 14:10 30,6 C 22,0 C 15,2 C 35,0 C 35,0 C 4,4 C 40 % 87 % 100 % 1008,6 hPa 0,0 l/m 4,0 km/h (1 Bft) S-SO 157 3 min 4,3 UV-I 15,4 C 35,0 C 3,2 km/h (1 Bft)
21.07.2010 14:15 30,7 C 22,1 C 15,2 C 35,1 C 35,1 C 4,4 C 39 % 87 % 100 % 1008,6 hPa 0,0 l/m 3,5 km/h (1 Bft) S 180 5 min 4,4 UV-I 15,1 C 35,1 C 2,4 km/h (1 Bft)
21.07.2010 14:20 30,9 C 22,0 C 15,2 C 35,8 C 35,8 C 4,9 C 40 % 87 % 100 % 1008,5 hPa 0,0 l/m 1,9 km/h (1 Bft) O-NO 67 5 min 4,5 UV-I 15,7 C 35,8 C 0,0 km/h (0 Bft)
21.07.2010 14:25 31,1 C 22,1 C 15,2 C 36,2 C 36,2 C 5,1 C 40 % 87 % 100 % 1008,5 hPa 0,0 l/m 1,8 km/h (1 Bft) W-NW 292 5 min 4,4 UV-I 15,9 C 36,2 C 2,4 km/h (1 Bft)
21.07.2010 14:30 31,0 C 22,1 C 15,2 C 36,4 C 36,4 C 5,4 C 38 % 87 % 100 % 1008,5 hPa 0,0 l/m 2,1 km/h (1 Bft) W-SW 247 5 min 4,4 UV-I 15,0 C 36,4 C 0,0 km/h (0 Bft)
21.07.2010 14:35 31,1 C 22,1 C 15,2 C 36,4 C 36,4 C 5,3 C 40 % 87 % 100 % 1008,5 hPa 0,0 l/m 2,1 km/h (1 Bft) S-SW 202 5 min 4,4 UV-I 15,9 C 36,4 C 7,4 km/h (2 Bft)
21.07.2010 14:40 31,3 C 22,2 C 15,2 C 36,3 C 36,3 C 5,0 C 40 % 87 % 100 % 1008,5 hPa 0,0 l/m 2,9 km/h (1 Bft) NW 315 5 min 4,3 UV-I 16,1 C 36,3 C 4,8 km/h (1 Bft)
21.07.2010 14:45 31,5 C 22,2 C 15,2 C 36,1 C 36,1 C 4,6 C 38 % 87 % 100 % 1008,5 hPa 0,0 l/m 4,8 km/h (1 Bft) W-SW 247 5 min 4,2 UV-I 15,4 C 36,1 C 8,0 km/h (2 Bft)
21.07.2010 14:50 31,5 C 22,3 C 15,2 C 35,7 C 35,7 C 4,2 C 39 % 87 % 100 % 1008,5 hPa 0,0 l/m 5,8 km/h (2 Bft) SW 225 5 min 4,1 UV-I 15,8 C 35,7 C 7,4 km/h (2 Bft)
21.07.2010 14:55 31,6 C 22,3 C 15,2 C 35,4 C 35,4 C 3,8 C 38 % 87 % 100 % 1008,5 hPa 0,0 l/m 5,8 km/h (2 Bft) SO 135 5 min 4,1 UV-I 15,5 C 35,4 C 3,5 km/h (1 Bft)
21.07.2010 15:00 31,7 C 22,3 C 15,2 C 35,4 C 35,4 C 3,7 C 37 % 87 % 97 % 1008,5 hPa 0,0 l/m 6,8 km/h (2 Bft) S 180 5 min 4,0 UV-I 15,2 C 35,4 C 10,6 km/h (2 Bft)
21.07.2010 15:07 31,7 C 22,4 C 15,2 C 35,1 C 35,1 C 3,4 C 37 % 87 % 89 % 1008,5 hPa 0,0 l/m 6,4 km/h (2 Bft) S 180 7 min 3,9 UV-I 15,2 C 35,1 C 9,7 km/h (2 Bft)
21.07.2010 15:08 31,8 C 22,4 C 15,2 C 35,4 C 35,4 C 3,6 C 36 % 87 % 95 % 1008,5 hPa 0,0 l/m 5,6 km/h (1 Bft) SW 225 1 min 3,9 UV-I 14,9 C 35,4 C 2,7 km/h (1 Bft)
21.07.2010 15:10 31,8 C 22,4 C 15,2 C 35,4 C 35,4 C 3,6 C 36 % 87 % 95 % 1008,5 hPa 0,0 l/m 5,6 km/h (1 Bft) SW 225 2 min 3,9 UV-I 14,9 C 35,4 C 2,7 km/h (1 Bft)
21.07.2010 15:15 31,9 C 22,5 C 15,2 C 35,8 C 35,8 C 3,9 C 36 % 87 % 100 % 1008,5 hPa 0,0 l/m 4,0 km/h (1 Bft) N-NO 22 5 min 3,8 UV-I 14,9 C 35,8 C 0,0 km/h (0 Bft)
21.07.2010 15:20 32,0 C 22,5 C 15,2 C 36,3 C 36,3 C 4,3 C 37 % 87 % 100 % 1008,4 hPa 0,0 l/m 2,4 km/h (1 Bft) S 180 5 min 3,7 UV-I 15,5 C 36,3 C 8,5 km/h (2 Bft)
21.07.2010 15:25 32,3 C 22,5 C 15,2 C 36,4 C 36,4 C 4,1 C 37 % 87 % 100 % 1008,4 hPa 0,0 l/m 2,7 km/h (1 Bft) SO 135 5 min 3,7 UV-I 15,7 C 36,4 C 2,1 km/h (1 Bft)
21.07.2010 15:30 32,4 C 22,7 C 15,2 C 36,6 C 36,6 C 4,2 C 37 % 87 % 100 % 1008,4 hPa 0,0 l/m 3,4 km/h (1 Bft) S-SO 157 5 min 3,7 UV-I 15,8 C 36,6 C 2,4 km/h (1 Bft)
21.07.2010 15:35 32,5 C 22,7 C 15,2 C 36,4 C 36,4 C 3,9 C 36 % 87 % 100 % 1008,4 hPa 0,0 l/m 4,5 km/h (1 Bft) S 180 5 min 3,7 UV-I 15,5 C 36,4 C 7,4 km/h (2 Bft)
21.07.2010 15:40 32,4 C 22,8 C 15,2 C 36,4 C 36,4 C 4,0 C 36 % 87 % 100 % 1008,1 hPa 0,0 l/m 4,2 km/h (1 Bft) S 180 5 min 3,7 UV-I 15,4 C 36,4 C 0,0 km/h (0 Bft)
21.07.2010 15:45 32,7 C 22,8 C 15,2 C 36,5 C 36,5 C 3,8 C 36 % 87 % 100 % 1008,1 hPa 0,0 l/m 3,5 km/h (1 Bft) NW 315 5 min 3,7 UV-I 15,6 C 36,5 C 4,7 km/h (1 Bft)
21.07.2010 15:50 32,7 C 22,9 C 15,2 C 37,0 C 37,0 C 4,3 C 35 % 87 % 100 % 1008,1 hPa 0,0 l/m 2,7 km/h (1 Bft) S 180 5 min 3,7 UV-I 15,2 C 37,0 C 3,1 km/h (1 Bft)
21.07.2010 15:55 32,7 C 22,9 C 15,2 C 37,1 C 37,1 C 4,4 C 36 % 87 % 100 % 1008,1 hPa 0,0 l/m 3,2 km/h (1 Bft) S 180 5 min 3,7 UV-I 15,6 C 37,1 C 7,2 km/h (2 Bft)
21.07.2010 16:00 32,6 C 23,0 C 15,2 C 36,5 C 36,5 C 3,9 C 36 % 87 % 100 % 1008,1 hPa 0,0 l/m 5,1 km/h (1 Bft) S-SO 157 5 min 3,6 UV-I 15,6 C 36,5 C 5,0 km/h (1 Bft)
21.07.2010 16:07 32,7 C 23,0 C 15,2 C 36,3 C 36,3 C 3,6 C 35 % 87 % 95 % 1008,1 hPa 0,0 l/m 5,6 km/h (1 Bft) N 0 7 min 3,4 UV-I 15,2 C 36,3 C 5,8 km/h (2 Bft)
21.07.2010 16:10 32,9 C 23,2 C 15,2 C 36,2 C 36,2 C 3,3 C 35 % 87 % 87 % 1008,1 hPa 0,0 l/m 4,5 km/h (1 Bft) SO 135 3 min 3,4 UV-I 15,4 C 36,2 C 2,9 km/h (1 Bft)
21.07.2010 16:15 33,0 C 23,3 C 15,2 C 36,6 C 36,6 C 3,6 C 35 % 87 % 95 % 1008,1 hPa 0,0 l/m 3,9 km/h (1 Bft) S-SW 202 5 min 3,2 UV-I 15,5 C 36,6 C 3,7 km/h (1 Bft)
21.07.2010 16:20 33,2 C 23,3 C 15,2 C 36,6 C 36,6 C 3,4 C 35 % 87 % 89 % 1008,2 hPa 0,0 l/m 4,5 km/h (1 Bft) NO 45 5 min 3,1 UV-I 15,6 C 36,6 C 9,2 km/h (2 Bft)
21.07.2010 16:25 33,3 C 23,4 C 15,2 C 36,3 C 36,3 C 3,0 C 35 % 87 % 79 % 1008,2 hPa 0,0 l/m 6,3 km/h (2 Bft) W-SW 247 0 min 3,0 UV-I 15,7 C 36,3 C 8,9 km/h (2 Bft)
21.07.2010 16:30 33,3 C 23,4 C 15,2 C 36,1 C 36,1 C 2,8 C 35 % 87 % 74 % 1008,2 hPa 0,0 l/m 6,9 km/h (2 Bft) W-SW 247 0 min 2,9 UV-I 15,7 C 36,1 C 7,7 km/h (2 Bft)
21.07.2010 16:35 33,3 C 23,4 C 15,2 C 36,1 C 36,1 C 2,8 C 35 % 87 % 74 % 1008,2 hPa 0,0 l/m 5,8 km/h (2 Bft) S 180 0 min 2,7 UV-I 15,7 C 36,1 C 3,1 km/h (1 Bft)
21.07.2010 16:40 33,2 C 23,5 C 15,2 C 36,3 C 36,3 C 3,1 C 35 % 87 % 82 % 1007,9 hPa 0,0 l/m 4,8 km/h (1 Bft) S-SO 157 0 min 2,6 UV-I 15,6 C 36,3 C 2,9 km/h (1 Bft)
21.07.2010 16:45 33,3 C 23,5 C 15,2 C 36,6 C 36,6 C 3,3 C 34 % 87 % 87 % 1007,9 hPa 0,0 l/m 3,5 km/h (1 Bft) O-SO 112 5 min 2,5 UV-I 15,3 C 36,6 C 1,6 km/h (1 Bft)
21.07.2010 16:50 33,3 C 23,6 C 15,2 C 37,3 C 37,3 C 4,0 C 35 % 87 % 100 % 1007,9 hPa 0,0 l/m 1,1 km/h (1 Bft) NO 45 5 min 2,4 UV-I 15,7 C 37,3 C 0,0 km/h (0 Bft)
21.07.2010 16:55 33,5 C 23,6 C 15,2 C 37,7 C 37,7 C 4,2 C 35 % 87 % 100 % 1007,9 hPa 0,0 l/m 0,6 km/h (0 Bft) O-NO 67 5 min 2,3 UV-I 15,9 C 37,7 C 2,1 km/h (1 Bft)
21.07.2010 17:00 33,4 C 23,6 C 15,2 C 38,2 C 38,2 C 4,8 C 35 % 87 % 100 % 1008,4 hPa 0,0 l/m 0,6 km/h (0 Bft) O 90 5 min 2,1 UV-I 15,8 C 38,2 C 0,0 km/h (0 Bft)
21.07.2010 17:07 33,5 C 23,7 C 15,2 C 38,5 C 38,5 C 5,0 C 34 % 87 % 100 % 1008,4 hPa 0,0 l/m 1,1 km/h (1 Bft) N 0 7 min 2,0 UV-I 15,4 C 38,5 C 2,1 km/h (1 Bft)
21.07.2010 17:10 33,7 C 23,7 C 15,2 C 38,6 C 38,6 C 4,9 C 34 % 87 % 100 % 1008,4 hPa 0,0 l/m 1,6 km/h (1 Bft) S 180 3 min 1,9 UV-I 15,6 C 38,6 C 5,1 km/h (1 Bft)
21.07.2010 17:15 33,7 C 23,7 C 15,2 C 38,2 C 38,2 C 4,5 C 34 % 87 % 100 % 1008,4 hPa 0,0 l/m 3,2 km/h (1 Bft) S 180 5 min 1,8 UV-I 15,6 C 38,2 C 6,1 km/h (2 Bft)
21.07.2010 17:20 33,8 C 23,8 C 15,2 C 37,7 C 37,7 C 3,9 C 35 % 87 % 100 % 1007,8 hPa 0,0 l/m 4,7 km/h (1 Bft) W 270 5 min 1,7 UV-I 16,2 C 37,7 C 3,1 km/h (1 Bft)
21.07.2010 17:25 33,9 C 23,8 C 15,2 C 37,7 C 37,7 C 3,8 C 34 % 87 % 100 % 1007,8 hPa 0,0 l/m 3,4 km/h (1 Bft) W-SW 247 5 min 1,6 UV-I 15,8 C 37,7 C 4,3 km/h (1 Bft)
21.07.2010 17:30 34,0 C 23,8 C 15,2 C 37,8 C 37,8 C 3,8 C 34 % 87 % 100 % 1007,8 hPa 0,0 l/m 2,9 km/h (1 Bft) SO 135 5 min 1,5 UV-I 15,9 C 37,8 C 3,5 km/h (1 Bft)
21.07.2010 17:35 34,0 C 23,8 C 15,2 C 37,8 C 37,8 C 3,8 C 33 % 87 % 100 % 1007,8 hPa 0,0 l/m 2,7 km/h (1 Bft) O-SO 112 5 min 1,4 UV-I 15,4 C 37,8 C 0,0 km/h (0 Bft)
21.07.2010 17:40 34,3 C 23,9 C 15,2 C 37,6 C 37,6 C 3,3 C 33 % 87 % 87 % 1007,8 hPa 0,0 l/m 2,6 km/h (1 Bft) NO 45 5 min 1,3 UV-I 15,7 C 37,6 C 0,0 km/h (0 Bft)
21.07.2010 17:45 34,2 C 23,9 C 15,2 C 37,5 C 37,5 C 3,3 C 34 % 87 % 87 % 1007,8 hPa 0,0 l/m 3,7 km/h (1 Bft) S 180 5 min 1,2 UV-I 16,1 C 37,5 C 10,5 km/h (2 Bft)
21.07.2010 17:50 34,2 C 23,9 C 15,2 C 36,8 C 36,8 C 2,6 C 34 % 87 % 68 % 1007,8 hPa 0,0 l/m 6,0 km/h (2 Bft) NW 315 0 min 1,1 UV-I 16,1 C 36,8 C 4,0 km/h (1 Bft)
21.07.2010 17:55 34,3 C 23,9 C 15,2 C 36,6 C 36,6 C 2,3 C 34 % 87 % 61 % 1007,8 hPa 0,0 l/m 6,1 km/h (2 Bft) S 180 0 min 1,0 UV-I 16,1 C 36,6 C 9,2 km/h (2 Bft)
21.07.2010 18:00 34,3 C 24,0 C 15,2 C 36,6 C 36,6 C 2,3 C 34 % 87 % 61 % 1007,7 hPa 0,0 l/m 4,2 km/h (1 Bft) S-SW 202 0 min 1,0 UV-I 16,1 C 36,6 C 3,2 km/h (1 Bft)
21.07.2010 18:07 34,3 C 24,0 C 15,2 C 37,1 C 37,1 C 2,8 C 33 % 87 % 74 % 1007,7 hPa 0,0 l/m 2,6 km/h (1 Bft) N 0 0 min 0,9 UV-I 15,7 C 37,1 C 0,0 km/h (0 Bft)
21.07.2010 18:10 34,4 C 24,0 C 15,2 C 37,6 C 37,6 C 3,2 C 34 % 87 % 84 % 1007,7 hPa 0,0 l/m 1,4 km/h (1 Bft) SO 135 0 min 0,8 UV-I 16,2 C 37,6 C 2,1 km/h (1 Bft)
21.07.2010 18:15 34,2 C 24,0 C 15,2 C 37,7 C 37,7 C 3,5 C 34 % 87 % 92 % 1007,7 hPa 0,0 l/m 1,6 km/h (1 Bft) O-NO 67 5 min 0,8 UV-I 16,1 C 37,7 C 2,3 km/h (1 Bft)
21.07.2010 18:20 34,0 C 24,0 C 15,2 C 37,6 C 37,6 C 3,6 C 34 % 87 % 95 % 1007,6 hPa 0,0 l/m 0,6 km/h (0 Bft) O-SO 112 5 min 0,7 UV-I 15,9 C 37,6 C 0,0 km/h (0 Bft)
21.07.2010 18:25 34,1 C 24,0 C 15,2 C 37,8 C 37,8 C 3,7 C 35 % 87 % 97 % 1007,6 hPa 0,0 l/m 0,8 km/h (0 Bft) O-SO 112 5 min 0,6 UV-I 16,4 C 37,8 C 2,7 km/h (1 Bft)
21.07.2010 18:30 34,1 C 24,1 C 15,2 C 37,8 C 37,8 C 3,7 C 34 % 87 % 97 % 1007,6 hPa 0,0 l/m 1,4 km/h (1 Bft) SO 135 5 min 0,5 UV-I 16,0 C 37,8 C 2,4 km/h (1 Bft)
21.07.2010 18:35 34,3 C 24,1 C 15,2 C 37,6 C 37,6 C 3,3 C 34 % 87 % 87 % 1007,6 hPa 0,0 l/m 1,9 km/h (1 Bft) S-SW 202 5 min 0,5 UV-I 16,1 C 37,6 C 3,1 km/h (1 Bft)
21.07.2010 18:40 34,4 C 24,1 C 15,2 C 37,3 C 37,3 C 2,9 C 34 % 87 % 76 % 1007,6 hPa 0,0 l/m 2,6 km/h (1 Bft) SO 135 0 min 0,4 UV-I 16,2 C 37,3 C 1,8 km/h (1 Bft)
21.07.2010 18:45 34,5 C 24,1 C 15,2 C 37,3 C 37,3 C 2,8 C 34 % 87 % 74 % 1007,6 hPa 0,0 l/m 2,1 km/h (1 Bft) S-SO 157 0 min 0,4 UV-I 16,3 C 37,3 C 1,9 km/h (1 Bft)
21.07.2010 18:50 34,3 C 24,1 C 15,2 C 37,5 C 37,5 C 3,2 C 35 % 87 % 84 % 1007,6 hPa 0,0 l/m 0,6 km/h (0 Bft) O-NO 67 0 min 0,3 UV-I 16,6 C 37,5 C 0,0 km/h (0 Bft)
21.07.2010 18:55 34,3 C 24,1 C 15,2 C 37,4 C 37,4 C 3,1 C 34 % 87 % 82 % 1007,6 hPa 0,0 l/m 0,5 km/h (0 Bft) O-NO 67 0 min 0,3 UV-I 16,1 C 37,4 C 0,0 km/h (0 Bft)
21.07.2010 19:00 34,2 C 24,2 C 15,2 C 37,3 C 37,3 C 3,1 C 34 % 87 % 82 % 1007,6 hPa 0,0 l/m 1,0 km/h (0 Bft) SW 225 5 min 0,2 UV-I 16,1 C 37,3 C 2,6 km/h (1 Bft)
21.07.2010 19:07 34,2 C 24,2 C 15,2 C 37,0 C 37,0 C 2,8 C 36 % 87 % 74 % 1007,6 hPa 0,0 l/m 1,6 km/h (1 Bft) N 0 0 min 0,2 UV-I 17,0 C 37,0 C 0,0 km/h (0 Bft)
21.07.2010 19:10 34,0 C 24,2 C 15,2 C 36,9 C 36,9 C 2,9 C 35 % 87 % 76 % 1007,6 hPa 0,0 l/m 1,1 km/h (1 Bft) SO 135 3 min 0,2 UV-I 16,3 C 36,9 C 3,4 km/h (1 Bft)
21.07.2010 19:15 33,9 C 24,2 C 15,2 C 36,7 C 36,7 C 2,8 C 36 % 87 % 74 % 1007,6 hPa 0,0 l/m 0,6 km/h (0 Bft) W-SW 247 5 min 0,2 UV-I 16,7 C 36,7 C 0,0 km/h (0 Bft)
21.07.2010 19:20 33,7 C 24,2 C 15,2 C 36,6 C 36,6 C 2,9 C 36 % 87 % 76 % 1007,5 hPa 0,0 l/m 0,5 km/h (0 Bft) S 180 5 min 0,1 UV-I 16,5 C 36,6 C 3,2 km/h (1 Bft)
21.07.2010 19:25 33,7 C 24,3 C 15,2 C 36,4 C 36,4 C 2,7 C 36 % 87 % 71 % 1007,5 hPa 0,0 l/m 0,3 km/h (0 Bft) O-NO 67 5 min 0,1 UV-I 16,5 C 36,4 C 0,0 km/h (0 Bft)
21.07.2010 19:30 33,5 C 24,3 C 15,2 C 36,2 C 36,2 C 2,7 C 37 % 87 % 71 % 1007,5 hPa 0,0 l/m 0,2 km/h (0 Bft) NO 45 5 min 0,1 UV-I 16,8 C 36,2 C 0,0 km/h (0 Bft)
21.07.2010 19:35 33,5 C 24,3 C 15,2 C 36,0 C 36,0 C 2,5 C 37 % 87 % 66 % 1007,5 hPa 0,0 l/m 0,0 km/h (0 Bft) NO 45 5 min 0,1 UV-I 16,8 C 36,0 C 0,0 km/h (0 Bft)
21.07.2010 19:40 33,2 C 24,3 C 15,2 C 35,4 C 35,4 C 2,2 C 38 % 87 % 58 % 1007,4 hPa 0,0 l/m 0,0 km/h (0 Bft) NO 45 5 min 0,0 UV-I 16,9 C 35,4 C 0,0 km/h (0 Bft)
21.07.2010 19:45 33,3 C 24,4 C 15,2 C 35,1 C 35,1 C 1,8 C 38 % 87 % 47 % 1007,4 hPa 0,0 l/m 0,0 km/h (0 Bft) NO 45 0 min 0,0 UV-I 17,0 C 35,1 C 0,0 km/h (0 Bft)
21.07.2010 19:50 33,0 C 24,4 C 15,2 C 34,7 C 34,7 C 1,7 C 39 % 87 % 45 % 1007,4 hPa 0,0 l/m 0,0 km/h (0 Bft) NO 45 0 min 0,0 UV-I 17,2 C 34,7 C 0,0 km/h (0 Bft)
21.07.2010 19:55 32,9 C 24,4 C 15,2 C 34,5 C 34,5 C 1,6 C 38 % 87 % 42 % 1007,4 hPa 0,0 l/m 0,0 km/h (0 Bft) NO 45 0 min 0,0 UV-I 16,7 C 34,5 C 0,0 km/h (0 Bft)
21.07.2010 20:00 32,6 C 24,4 C 15,2 C 34,1 C 34,1 C 1,5 C 40 % 87 % 39 % 1007,4 hPa 0,0 l/m 0,0 km/h (0 Bft) NO 45 0 min 0,0 UV-I 17,2 C 34,1 C 0,0 km/h (0 Bft)
21.07.2010 20:10 32,4 C 24,4 C 15,2 C 33,0 C 33,0 C 0,6 C 41 % 87 % 16 % 1007,4 hPa 0,0 l/m 0,0 km/h (0 Bft) NO 45 0 min 0,0 UV-I 17,4 C 33,0 C 0,0 km/h (0 Bft)
21.07.2010 20:15 32,3 C 24,4 C 15,2 C 32,4 C 32,4 C 0,1 C 42 % 87 % 3 % 1007,4 hPa 0,0 l/m 0,0 km/h (0 Bft) NO 45 0 min 0,0 UV-I 17,7 C 32,4 C 0,0 km/h (0 Bft)
21.07.2010 20:20 32,0 C 24,4 C 15,2 C 31,7 C 31,0 C 0,0 C 43 % 87 % 0 % 1007,4 hPa 0,0 l/m 0,0 km/h (0 Bft) NO 45 0 min 0,0 UV-I 17,8 C 31,0 C 0,0 km/h (0 Bft)
21.07.2010 20:25 31,8 C 24,4 C 15,2 C 31,3 C 30,3 C 0,0 C 45 % 87 % 0 % 1007,4 hPa 0,0 l/m 0,0 km/h (0 Bft) NO 45 0 min 0,0 UV-I 18,4 C 30,3 C 0,0 km/h (0 Bft)
21.07.2010 20:30 31,3 C 24,4 C 15,2 C 30,7 C 29,4 C 0,0 C 46 % 87 % 0 % 1007,4 hPa 0,0 l/m 0,0 km/h (0 Bft) NO 45 0 min 0,0 UV-I 18,3 C 29,4 C 0,0 km/h (0 Bft)
21.07.2010 20:35 31,1 C 24,4 C 15,2 C 30,4 C 28,9 C 0,0 C 48 % 87 % 0 % 1007,4 hPa 0,0 l/m 0,0 km/h (0 Bft) W 270 0 min 0,0 UV-I 18,8 C 28,9 C 0,0 km/h (0 Bft)
21.07.2010 20:40 31,1 C 24,4 C 15,2 C 30,1 C 28,1 C 0,0 C 49 % 87 % 0 % 1007,5 hPa 0,0 l/m 0,0 km/h (0 Bft) W 270 0 min 0,0 UV-I 19,1 C 28,1 C 0,0 km/h (0 Bft)
21.07.2010 20:45 30,7 C 24,5 C 27,7 C 29,7 C 27,7 C 0,0 C 50 % 58 % 0 % 1007,5 hPa 0,0 l/m 0,0 km/h (0 Bft) W 270 0 min 0,0 UV-I 19,1 C 27,7 C 0,0 km/h (0 Bft)
21.07.2010 20:50 30,5 C 24,5 C 27,3 C 29,4 C 27,1 C 0,0 C 52 % 60 % 0 % 1007,5 hPa 0,0 l/m 0,0 km/h (0 Bft) W 270 0 min 0,0 UV-I 19,5 C 27,1 C 0,0 km/h (0 Bft)
21.07.2010 20:55 30,2 C 24,5 C 27,2 C 29,0 C 26,7 C 0,0 C 53 % 61 % 0 % 1007,5 hPa 0,0 l/m 0,0 km/h (0 Bft) W 270 0 min 0,0 UV-I 19,5 C 26,7 C 0,0 km/h (0 Bft)
21.07.2010 21:00 29,9 C 24,5 C 27,2 C 28,7 C 26,2 C 0,0 C 54 % 61 % 0 % 1007,7 hPa 0,0 l/m 0,0 km/h (0 Bft) W 270 0 min 0,0 UV-I 19,6 C 26,2 C 0,0 km/h (0 Bft)
21.07.2010 21:10 29,4 C 24,5 C 27,2 C 28,0 C 25,3 C 0,0 C 56 % 61 % 0 % 1007,7 hPa 0,0 l/m 0,0 km/h (0 Bft) W 270 0 min 0,0 UV-I 19,7 C 25,3 C 0,0 km/h (0 Bft)
21.07.2010 21:15 29,5 C 24,5 C 27,2 C 28,0 C 25,0 C 0,0 C 56 % 61 % 0 % 1007,7 hPa 0,0 l/m 0,0 km/h (0 Bft) W 270 0 min 0,0 UV-I 19,8 C 25,0 C 0,0 km/h (0 Bft)
21.07.2010 21:20 29,2 C 24,5 C 25,9 C 27,7 C 24,7 C 0,0 C 57 % 66 % 0 % 1007,6 hPa 0,0 l/m 0,0 km/h (0 Bft) W 270 0 min 0,0 UV-I 19,8 C 24,7 C 0,0 km/h (0 Bft)
21.07.2010 21:25 29,0 C 24,5 C 25,9 C 27,5 C 24,5 C 0,0 C 57 % 66 % 0 % 1007,6 hPa 0,0 l/m 0,0 km/h (0 Bft) W 270 0 min 0,0 UV-I 19,6 C 24,5 C 0,0 km/h (0 Bft)
21.07.2010 21:30 28,5 C 24,4 C 25,3 C 27,0 C 24,0 C 0,0 C 58 % 68 % 0 % 1007,6 hPa 0,0 l/m 0,0 km/h (0 Bft) W 270 0 min 0,0 UV-I 19,4 C 24,0 C 0,0 km/h (0 Bft)
21.07.2010 21:35 28,2 C 24,4 C 25,1 C 26,7 C 23,8 C 0,0 C 59 % 69 % 0 % 1007,6 hPa 0,0 l/m 0,0 km/h (0 Bft) W 270 0 min 0,0 UV-I 19,4 C 23,8 C 0,0 km/h (0 Bft)
21.07.2010 21:40 28,2 C 24,5 C 24,9 C 26,6 C 23,4 C 0,0 C 60 % 69 % 0 % 1007,5 hPa 0,0 l/m 0,2 km/h (0 Bft) W 270 0 min 0,0 UV-I 19,7 C 23,4 C 1,9 km/h (1 Bft)
21.07.2010 21:45 28,0 C 24,5 C 24,9 C 26,4 C 23,2 C 0,0 C 60 % 70 % 0 % 1007,5 hPa 0,0 l/m 0,2 km/h (0 Bft) N-NO 22 0 min 0,0 UV-I 19,5 C 23,2 C 0,0 km/h (0 Bft)
21.07.2010 21:50 27,6 C 24,5 C 24,6 C 26,1 C 23,0 C 0,0 C 61 % 70 % 0 % 1007,5 hPa 0,0 l/m 0,0 km/h (0 Bft) N-NO 22 0 min 0,0 UV-I 19,4 C 23,0 C 0,0 km/h (0 Bft)
21.07.2010 21:55 27,6 C 24,5 C 24,6 C 26,0 C 22,8 C 0,0 C 61 % 70 % 0 % 1007,5 hPa 0,0 l/m 0,2 km/h (0 Bft) SW 225 0 min 0,0 UV-I 19,4 C 22,8 C 0,0 km/h (0 Bft)
21.07.2010 22:00 27,4 C 24,5 C 24,6 C 25,8 C 22,6 C 0,0 C 61 % 70 % 0 % 1007,4 hPa 0,0 l/m 0,2 km/h (0 Bft) SW 225 0 min 0,0 UV-I 19,2 C 22,6 C 0,0 km/h (0 Bft)
21.07.2010 22:10 26,9 C 24,5 C 24,6 C 25,3 C 22,1 C 0,0 C 62 % 70 % 0 % 1007,4 hPa 0,0 l/m 0,0 km/h (0 Bft) SW 225 0 min 0,0 UV-I 19,0 C 22,1 C 0,0 km/h (0 Bft)
21.07.2010 22:15 26,9 C 24,5 C 24,6 C 25,2 C 21,9 C 0,0 C 63 % 70 % 0 % 1007,4 hPa 0,0 l/m 0,0 km/h (0 Bft) SW 225 0 min 0,0 UV-I 19,2 C 21,9 C 0,0 km/h (0 Bft)
21.07.2010 22:20 26,6 C 24,4 C 24,6 C 25,0 C 21,7 C 0,0 C 63 % 70 % 0 % 1007,6 hPa 0,0 l/m 0,0 km/h (0 Bft) SW 225 0 min 0,0 UV-I 19,0 C 21,7 C 0,0 km/h (0 Bft)
21.07.2010 22:25 26,3 C 24,4 C 24,6 C 24,7 C 21,6 C 0,0 C 64 % 70 % 0 % 1007,6 hPa 0,0 l/m 0,0 km/h (0 Bft) SW 225 0 min 0,0 UV-I 18,9 C 21,6 C 0,0 km/h (0 Bft)
21.07.2010 22:30 26,0 C 24,4 C 22,9 C 24,5 C 21,5 C 0,0 C 65 % 75 % 0 % 1007,6 hPa 0,0 l/m 0,0 km/h (0 Bft) SW 225 0 min 0,0 UV-I 18,9 C 21,5 C 0,0 km/h (0 Bft)
21.07.2010 22:35 26,0 C 24,4 C 22,9 C 24,4 C 21,3 C 0,0 C 65 % 75 % 0 % 1007,6 hPa 0,0 l/m 0,0 km/h (0 Bft) SW 225 0 min 0,0 UV-I 18,9 C 21,3 C 0,0 km/h (0 Bft)
21.07.2010 22:40 26,0 C 24,5 C 22,8 C 24,4 C 21,1 C 0,0 C 65 % 75 % 0 % 1007,4 hPa 0,0 l/m 0,0 km/h (0 Bft) SW 225 0 min 0,0 UV-I 18,9 C 21,1 C 0,0 km/h (0 Bft)
21.07.2010 22:45 26,0 C 24,5 C 22,8 C 24,3 C 21,0 C 0,0 C 65 % 75 % 0 % 1007,4 hPa 0,0 l/m 0,0 km/h (0 Bft) SW 225 0 min 0,0 UV-I 18,9 C 21,0 C 0,0 km/h (0 Bft)
21.07.2010 22:50 25,7 C 24,5 C 22,8 C 24,0 C 20,7 C 0,0 C 65 % 75 % 0 % 1007,4 hPa 0,0 l/m 0,0 km/h (0 Bft) SW 225 0 min 0,0 UV-I 18,6 C 20,7 C 0,0 km/h (0 Bft)
21.07.2010 22:55 25,6 C 24,5 C 22,8 C 24,0 C 20,7 C 0,0 C 65 % 75 % 0 % 1007,4 hPa 0,0 l/m 0,0 km/h (0 Bft) SW 225 0 min 0,0 UV-I 18,5 C 20,7 C 0,0 km/h (0 Bft)
21.07.2010 23:00 25,5 C 24,5 C 22,8 C 23,8 C 20,5 C 0,0 C 66 % 75 % 0 % 1007,6 hPa 0,0 l/m 0,2 km/h (0 Bft) SW 225 0 min 0,0 UV-I 18,7 C 20,5 C 0,0 km/h (0 Bft)
21.07.2010 23:10 25,2 C 24,4 C 21,9 C 23,5 C 20,2 C 0,0 C 67 % 77 % 0 % 1007,6 hPa 0,0 l/m 0,0 km/h (0 Bft) SW 225 0 min 0,0 UV-I 18,6 C 20,2 C 0,0 km/h (0 Bft)
21.07.2010 23:15 25,1 C 24,4 C 21,9 C 23,4 C 20,0 C 0,0 C 67 % 77 % 0 % 1007,6 hPa 0,0 l/m 0,0 km/h (0 Bft) SW 225 0 min 0,0 UV-I 18,5 C 20,0 C 0,0 km/h (0 Bft)
21.07.2010 23:20 24,9 C 24,4 C 21,9 C 23,2 C 19,9 C 0,0 C 67 % 77 % 0 % 1007,3 hPa 0,0 l/m 0,3 km/h (0 Bft) SW 225 0 min 0,0 UV-I 18,3 C 19,9 C 1,6 km/h (1 Bft)
21.07.2010 23:25 24,8 C 24,4 C 21,9 C 23,1 C 19,8 C 0,0 C 66 % 77 % 0 % 1007,3 hPa 0,0 l/m 0,3 km/h (0 Bft) SW 225 0 min 0,0 UV-I 18,0 C 19,8 C 0,0 km/h (0 Bft)
21.07.2010 23:30 24,7 C 24,4 C 21,9 C 23,0 C 19,6 C 0,0 C 66 % 77 % 0 % 1007,3 hPa 0,0 l/m 0,0 km/h (0 Bft) SW 225 0 min 0,0 UV-I 17,9 C 19,6 C 0,0 km/h (0 Bft)
21.07.2010 23:35 24,4 C 24,4 C 21,9 C 22,8 C 19,6 C 0,0 C 67 % 77 % 0 % 1007,3 hPa 0,0 l/m 0,0 km/h (0 Bft) SW 225 0 min 0,0 UV-I 17,9 C 19,6 C 0,0 km/h (0 Bft)
21.07.2010 23:40 24,3 C 24,3 C 21,9 C 22,7 C 19,4 C 0,0 C 68 % 77 % 0 % 1007,6 hPa 0,0 l/m 0,0 km/h (0 Bft) SW 225 0 min 0,0 UV-I 18,0 C 19,4 C 0,0 km/h (0 Bft)
21.07.2010 23:45 24,4 C 24,3 C 21,9 C 22,7 C 19,3 C 0,0 C 68 % 77 % 0 % 1007,6 hPa 0,0 l/m 0,5 km/h (0 Bft) W-SW 247 0 min 0,0 UV-I 18,1 C 19,3 C 1,6 km/h (1 Bft)
21.07.2010 23:50 24,3 C 24,3 C 21,9 C 22,6 C 19,1 C 0,0 C 68 % 77 % 0 % 1007,6 hPa 0,0 l/m 0,5 km/h (0 Bft) W-SW 247 0 min 0,0 UV-I 18,0 C 19,1 C 0,0 km/h (0 Bft)
21.07.2010 23:55 24,0 C 24,3 C 21,9 C 22,3 C 19,0 C 0,0 C 68 % 77 % 0 % 1007,6 hPa 0,0 l/m 0,0 km/h (0 Bft) W-SW 247 0 min 0,0 UV-I 17,7 C 19,0 C 0,0 km/h (0 Bft)
_ Min-Zeit 06:10 09:30 05:15 05:50 05:35 00:00 17:35 20:45 00:00 23:20 - 00:10 - - - 00:00 06:10 05:35 00:00
Minimum _ 16,5 C 21,2 C 15,2 C 15,5 C 13,1 C 0,0 C 33 % 58 % 0 % 1007,3 hPa - 0,0 km/h (0 Bft) - - - 0,0 UV-I 13,2 C 13,1 C 0,0 km/h (0 Bft)
_ Max-Zeit 18:45 20:45 20:45 17:10 17:10 09:25 03:45 05:10 07:45 00:00 00:00 13:00 - - 08:07 13:35 21:20 17:10 12:50
Maximum _ 34,5 C 24,5 C 27,7 C 38,6 C 38,6 C 10,1 C 82 % 87 % 100 % 1011,4 hPa 0,0 l/m 6,9 km/h
SW (2 Bft)
- - 7 min 4,7 UV-I 19,8 C 38,6 C 17,5 km/h
S-SW (3 Bft)
Durchschnitt _ 25,6 C 22,7 C 17,6 C 27,7 C 26,5 C 2,7 C 59 % 82 % 49 % 1008,8 hPa #0,0 l/m 1,5 km/h (1 Bft) S - #10:48 h 2,2 UV-I 16,1 C 26,5 C 2,0 km/h (1 Bft)
2010 www.wetterstation-wechselburg.de